TimeBST,TemperatureF,Dew PointF,Humidity,Sea Level PressureIn,VisibilityMPH,Wind Direction,Wind SpeedMPH,Gust SpeedMPH,PrecipitationIn,Events,Conditions,WindDirDegrees,DateUTC
12:50 AM,48.2,46.4,93,30.01,-9999.0,South,3.5,-,N/A,,Clear,190,2013-09-08 23:50:00
1:50 AM,46.4,44.6,93,30.01,-9999.0,SW,4.6,-,N/A,,Clear,220,2013-09-09 00:50:00
2:50 AM,44.6,42.8,93,30.01,-9999.0,South,2.3,-,N/A,,Clear,170,2013-09-09 01:50:00
3:50 AM,42,41,95,30.01,12,SSW,4.6,,,,Scattered Clouds,200,2013-09-09 02:50:00
3:50 AM,42.8,41.0,93,30.01,-9999.0,SSW,4.6,-,N/A,,Clear,200,2013-09-09 02:50:00
4:50 AM,42.8,41.0,93,29.98,-9999.0,East,2.3,-,N/A,,Clear,100,2013-09-09 03:50:00
5:50 AM,41.0,39.2,93,30.01,4.3,SE,3.5,-,N/A,Fog,Fog,130,2013-09-09 04:50:00
6:29 AM,41.0,41.0,100,30.01,2.5,East,2.3,-,N/A,Fog,Fog,100,2013-09-09 05:29:00
6:50 AM,41,41,99,30.01,1,SE,1.2,,,Fog,Light Fog,130,2013-09-09 05:50:00
6:50 AM,41.0,41.0,100,30.01,2.8,SE,1.2,-,N/A,Fog,Scattered Clouds,130,2013-09-09 05:50:00
7:08 AM,42.8,41.0,93,30.01,2.8,SSE,1.2,-,N/A,Fog,Fog,150,2013-09-09 06:08:00
7:50 AM,44.6,42.8,93,30.01,3.1,SE,1.2,-,N/A,,Partly Cloudy,130,2013-09-09 06:50:00
8:50 AM,51.8,46.4,82,30.01,5.0,East,1.2,-,N/A,,Haze,100,2013-09-09 07:50:00
9:50 AM,56,46,61,30.01,9,WSW,3.5,,,,Partly Cloudy,240,2013-09-09 08:50:00
9:50 AM,55.4,46.4,72,30.01,6.2,WSW,3.5,-,N/A,,Scattered Clouds,240,2013-09-09 08:50:00
10:50 AM,59.0,42.8,55,29.98,6.2,West,6.9,-,N/A,,Scattered Clouds,260,2013-09-09 09:50:00
11:50 AM,59.0,46.4,63,29.98,6.2,WSW,6.9,-,N/A,,Mostly Cloudy,250,2013-09-09 10:50:00
12:50 PM,59,46,52,29.99,25,WSW,6.9,,,,Mostly Cloudy,240,2013-09-09 11:50:00
12:50 PM,59.0,46.4,63,29.98,6.2,WSW,6.9,-,N/A,,Mostly Cloudy,240,2013-09-09 11:50:00
1:50 PM,62.6,41.0,45,29.95,6.2,SW,8.1,-,N/A,,Mostly Cloudy,220,2013-09-09 12:50:00
2:50 PM,66.2,42.8,43,29.95,6.2,SSW,5.8,-,N/A,,Mostly Cloudy,200,2013-09-09 13:50:00
3:50 PM,61,43,41,29.96,19,North,9.2,,,,Mostly Cloudy,0,2013-09-09 14:50:00
3:50 PM,60.8,42.8,52,29.95,6.2,North,9.2,-,N/A,,Mostly Cloudy,360,2013-09-09 14:50:00
4:50 PM,62.6,44.6,52,29.95,6.2,North,12.7,-,N/A,,Mostly Cloudy,360,2013-09-09 15:50:00
5:22 PM,60.8,46.4,59,29.98,6.2,North,9.2,-,N/A,Rain-Thunderstorm,Light Thunderstorms and Rain,350,2013-09-09 16:22:00
5:37 PM,59.0,46.4,63,29.98,6.2,North,10.4,-,N/A,,Mostly Cloudy,360,2013-09-09 16:37:00
5:50 PM,59.0,48.2,67,29.98,6.2,North,8.1,-,N/A,,Mostly Cloudy,360,2013-09-09 16:50:00
6:50 PM,56,45,57,29.99,19,North,5.8,,,,Partly Cloudy,0,2013-09-09 17:50:00
6:50 PM,55.4,44.6,67,29.98,6.2,North,5.8,-,N/A,,Mostly Cloudy,360,2013-09-09 17:50:00
7:50 PM,53.6,46.4,77,30.01,6.2,NW,6.9,-,N/A,Rain,Light Rain Showers,320,2013-09-09 18:50:00
8:50 PM,53.6,46.4,77,30.01,-9999.0,NW,5.8,-,N/A,,Clear,320,2013-09-09 19:50:00
9:50 PM,53,48,76,30.02,19,WNW,6.9,,,,Partly Cloudy,300,2013-09-09 20:50:00
9:50 PM,51.8,48.2,88,30.01,6.2,WNW,6.9,-,N/A,,Scattered Clouds,300,2013-09-09 20:50:00
10:50 PM,51.8,48.2,88,30.04,6.2,NW,9.2,-,N/A,,Scattered Clouds,310,2013-09-09 21:50:00
11:50 PM,50.0,48.2,94,30.04,6.2,NW,9.2,-,N/A,,Partly Cloudy,310,2013-09-09 22:50:00